Tullahoma, TN

4:28 AM CDT on April 28, 2017 (GMT -0500)
Tullahoma Regional-Northern

Weather History for KTHA - December, 2013

Change the Weather History Date:

Tuesday, December 3, 2013

  Actual Average Record
Temperature  
Mean Temperature 54 °F -  
Max Temperature 57 °F 54 °F 57 °F (2013)
Min Temperature 50 °F 35 °F 30 °F (2015)
Degree Days  
Heating Degree Days 12    
Growing Degree Days 4 (Base 50)    
Moisture  
Dew Point 52 °F    
Average Humidity 96    
Maximum Humidity 100    
Minimum Humidity 88    
Precipitation  
Precipitation 0.00 in - - ()
Sea Level Pressure  
Sea Level Pressure 29.82 in    
Wind  
Wind Speed 4 mph (SE)    
Max Wind Speed 8 mph    
Max Gust Speed -    
Visibility 6 miles    
Events      
Averages and records for this station are not official NWS values.
T = Trace of Precipitation, MM = Missing Value Source: NWS Daily Summary

Daily Weather History Graph

Daily Weather History Graph

Search for Another Location

Airport or City:

Trip Planner

Search our weather history database for the weather conditions in past years. The results will help you decide how hot, cold, wet, or windy it might be!

Date:

Astronomy

Dec. 03, 2013 Rise Set
Actual Time 6:37 AM CST 4:32 PM CST
Civil Twilight 6:09 AM CST 5:00 PM CST
Nautical Twilight 5:38 AM CST 5:31 PM CST
Astronomical Twilight 5:07 AM CST 6:02 PM CST
Moon 7:07 AM CST (12/3) 5:34 PM CST (12/3)
Length of Visible Light 10h 50m
Length of Day
9h 54m
New Moon, 1% of the Moon is Illuminated
Dec 3
New Moon
Dec 9
First Quarter
Dec 17
Full
Dec 25
Last Quarter
Jan 1
New

Hourly Weather History & Observations

Time (CST) Temp. Dew Point Humidity Pressure Visibility Wind Dir Wind Speed Gust Speed Precip Events Conditions
12:35 AM 50.0 °F 48.2 °F 94% 29.81 in 1.0 mi SE 3.5 mph - N/A   Overcast
12:55 AM 50.0 °F 48.2 °F 94% 29.81 in 1.2 mi Calm Calm - N/A   Overcast
1:15 AM 50.0 °F 50.0 °F 100% 29.81 in 1.8 mi SE 3.5 mph - N/A   Overcast
1:35 AM 50.0 °F 50.0 °F 100% 29.81 in 1.8 mi SE 3.5 mph - N/A   Overcast
1:55 AM 50.0 °F 50.0 °F 100% 29.81 in 2.0 mi SE 4.6 mph - N/A   Overcast
2:15 AM 50.0 °F 50.0 °F 100% 29.81 in 2.0 mi Calm Calm - N/A   Overcast
2:35 AM 50.0 °F 50.0 °F 100% 29.82 in 2.0 mi Calm Calm - N/A   Overcast
2:55 AM 50.0 °F 50.0 °F 100% 29.81 in 2.0 mi Calm Calm - N/A   Overcast
3:15 AM 50.0 °F 50.0 °F 100% 29.81 in 2.5 mi Calm Calm - N/A   Overcast
3:35 AM 50.0 °F 50.0 °F 100% 29.80 in 2.5 mi Calm Calm - N/A   Overcast
3:55 AM 50.0 °F 50.0 °F 100% 29.80 in 2.5 mi SE 3.5 mph - N/A   Overcast
4:15 AM 50.0 °F 50.0 °F 100% 29.79 in 3.0 mi ESE 4.6 mph - N/A   Overcast
4:35 AM 50.0 °F 50.0 °F 100% 29.79 in 2.5 mi ESE 3.5 mph - N/A   Overcast
4:55 AM 50.0 °F 48.2 °F 94% 29.80 in 3.0 mi SE 3.5 mph - N/A   Overcast
5:15 AM 50.0 °F 50.0 °F 100% 29.79 in 3.0 mi SE 3.5 mph - N/A   Overcast
5:35 AM 50.0 °F 50.0 °F 100% 29.79 in 4.0 mi SSE 3.5 mph - N/A   Overcast
5:55 AM 50.0 °F 50.0 °F 100% 29.79 in 4.0 mi SE 3.5 mph - N/A   Overcast
6:15 AM 50.0 °F 50.0 °F 100% 29.79 in 4.0 mi SE 3.5 mph - N/A   Overcast
6:35 AM 50.0 °F 50.0 °F 100% 29.80 in 5.0 mi SE 3.5 mph - N/A   Overcast
6:55 AM 50.0 °F 50.0 °F 100% 29.81 in 6.0 mi SSE 4.6 mph - N/A   Overcast
7:15 AM 51.8 °F 50.0 °F 94% 29.81 in 7.0 mi SE 3.5 mph - N/A   Overcast
7:35 AM 51.8 °F 51.8 °F 100% 29.81 in 5.0 mi ESE 3.5 mph - N/A   Overcast
7:55 AM 51.8 °F 51.8 °F 100% 29.82 in 5.0 mi SSE 4.6 mph - N/A   Overcast
8:15 AM 51.8 °F 51.8 °F 100% 29.83 in 6.0 mi SSE 4.6 mph - N/A   Overcast
8:35 AM 51.8 °F 51.8 °F 100% 29.83 in 7.0 mi SSE 4.6 mph - N/A   Overcast
8:55 AM 51.8 °F 51.8 °F 100% 29.83 in 6.0 mi SE 5.8 mph - N/A   Overcast
9:15 AM 53.6 °F 51.8 °F 94% 29.84 in 7.0 mi SE 4.6 mph - N/A   Overcast
9:35 AM 53.6 °F 51.8 °F 94% 29.85 in 7.0 mi SSE 3.5 mph - N/A   Overcast
9:55 AM 53.6 °F 51.8 °F 94% 29.85 in 9.0 mi SSE 5.8 mph - N/A   Overcast
10:15 AM 53.6 °F 51.8 °F 94% 29.85 in 10.0 mi SE 5.8 mph - N/A   Overcast
10:35 AM 53.6 °F 51.8 °F 94% 29.84 in 9.0 mi SSE 5.8 mph - N/A   Overcast
10:55 AM 53.6 °F 51.8 °F 94% 29.84 in 10.0 mi SSE 4.6 mph - N/A   Overcast
11:15 AM 53.6 °F 51.8 °F 94% 29.83 in 10.0 mi SSE 4.6 mph - N/A   Overcast
11:35 AM 53.6 °F 51.8 °F 94% 29.82 in 9.0 mi SSE 5.8 mph - N/A   Overcast
11:55 AM 53.6 °F 51.8 °F 94% 29.81 in 9.0 mi SSE 5.8 mph - N/A   Overcast
12:15 PM 53.6 °F 51.8 °F 94% 29.81 in 9.0 mi SE 5.8 mph - N/A   Overcast
12:35 PM 53.6 °F 51.8 °F 94% 29.80 in 10.0 mi South 5.8 mph - N/A   Overcast
12:55 PM 55.4 °F 51.8 °F 88% 29.80 in 10.0 mi SSE 5.8 mph - N/A   Overcast
1:15 PM 55.4 °F 51.8 °F 88% 29.80 in 10.0 mi SSE 4.6 mph - N/A   Overcast
1:35 PM 55.4 °F 53.6 °F 94% 29.80 in 10.0 mi SSE 6.9 mph - N/A   Overcast
1:55 PM 55.4 °F 53.6 °F 94% 29.79 in 10.0 mi SSE 3.5 mph - N/A   Overcast
2:15 PM 57.2 °F 53.6 °F 88% 29.79 in 10.0 mi SSE 5.8 mph - N/A   Overcast
2:35 PM 57.2 °F 53.6 °F 88% 29.79 in 10.0 mi SSE 8.1 mph - N/A   Mostly Cloudy
2:55 PM 57.2 °F 53.6 °F 88% 29.79 in 10.0 mi SSE 6.9 mph - N/A   Scattered Clouds
3:15 PM 57.2 °F 53.6 °F 88% 29.79 in 10.0 mi SSE 6.9 mph - N/A   Overcast
3:35 PM 57.2 °F 53.6 °F 88% 29.80 in 10.0 mi SE 3.5 mph - N/A   Overcast
3:55 PM 57.2 °F 53.6 °F 88% 29.80 in 10.0 mi SE 5.8 mph - N/A   Overcast
4:15 PM 57.2 °F 53.6 °F 88% 29.80 in 10.0 mi SSE 6.9 mph - N/A   Overcast
4:35 PM 55.4 °F 53.6 °F 94% 29.81 in 10.0 mi SSE 6.9 mph - N/A   Overcast
4:55 PM 55.4 °F 53.6 °F 94% 29.81 in 10.0 mi SSE 6.9 mph - N/A   Overcast
5:15 PM 55.4 °F 53.6 °F 94% 29.81 in 10.0 mi SSE 8.1 mph - N/A   Overcast
5:35 PM 55.4 °F 53.6 °F 94% 29.82 in 10.0 mi SSE 6.9 mph - N/A   Overcast
5:55 PM 55.4 °F 53.6 °F 94% 29.83 in 10.0 mi SE 5.8 mph - N/A   Mostly Cloudy
6:15 PM 55.4 °F 53.6 °F 94% 29.81 in 8.0 mi SE 4.6 mph - N/A   Mostly Cloudy
6:35 PM 53.6 °F 51.8 °F 94% 29.82 in 7.0 mi SE 4.6 mph - N/A   Clear
6:55 PM 53.6 °F 51.8 °F 94% 29.82 in 6.0 mi SE 4.6 mph - N/A   Scattered Clouds
7:15 PM 53.6 °F 51.8 °F 94% 29.82 in 5.0 mi SE 3.5 mph - N/A   Scattered Clouds
7:35 PM 51.8 °F 51.8 °F 100% 29.82 in 5.0 mi ESE 4.6 mph - N/A   Clear
7:55 PM 51.8 °F 51.8 °F 100% 29.83 in 5.0 mi Calm Calm - N/A   Clear
8:15 PM 51.8 °F 51.8 °F 100% 29.82 in 5.0 mi SE 4.6 mph - N/A   Scattered Clouds
8:35 PM 51.8 °F 51.8 °F 100% 29.83 in 5.0 mi SE 3.5 mph - N/A   Scattered Clouds
8:55 PM 51.8 °F 51.8 °F 100% 29.83 in 5.0 mi SE 3.5 mph - N/A   Scattered Clouds
9:15 PM 51.8 °F 51.8 °F 100% 29.84 in 5.0 mi ESE 3.5 mph - N/A   Mostly Cloudy
9:35 PM 51.8 °F 51.8 °F 100% 29.84 in 4.0 mi SE 3.5 mph - N/A   Overcast
9:55 PM 53.6 °F 53.6 °F 100% 29.84 in 5.0 mi SSE 3.5 mph - N/A   Mostly Cloudy
10:15 PM 53.6 °F 53.6 °F 100% 29.84 in 5.0 mi SE 5.8 mph - N/A   Mostly Cloudy
10:35 PM 53.6 °F 53.6 °F 100% 29.84 in 5.0 mi Calm Calm - N/A   Mostly Cloudy
10:55 PM 53.6 °F 51.8 °F 94% 29.85 in 4.0 mi SSE 5.8 mph - N/A   Partly Cloudy
11:15 PM 53.6 °F 53.6 °F 100% 29.84 in 4.0 mi SSE 5.8 mph - N/A   Mostly Cloudy
11:35 PM 53.6 °F 53.6 °F 100% 29.84 in 4.0 mi SSE 4.6 mph - N/A   Overcast
11:55 PM 53.6 °F 53.6 °F 100% 29.84 in 5.0 mi SSE 4.6 mph - N/A   Overcast